RH
19 5 4 10 18 27 30 30 31 31 31 30 28 27 26 26 26 26 26 25 23 22 22 21 20 20 20 20 20 19 19 19 18 17 16 16 15 14 13 11 11 9 8 8 8 7 7 7 6 7 6 5
9 4 7 15 25 29 31 31 31 31 30 29 27 27 25 25 26 26 26 25 24 24 23 22 22 22 22 21 21 21 21 20 19 19 18 17 16 15 14 12 11 10 9 8 8 8 7 7 7 7 6 5
4 6 10 20 28 30 31 31 31 31 29 28 27 26 25 25 26 26 26 26 26 25 25 24 24 24 24 24 24 23 23 22 21 20 20 19 17 16 15 13 12 10 9 9 8 8 8 7 7 7 7 6
5 7 14 24 29 31 32 31 31 30 29 28 27 26 26 26 25 26 26 26 26 26 26 26 26 26 26 26 26 25 25 24 23 22 21 19 17 16 14 13 12 11 10 9 8 8 8 7 7 7 7 6
6 9 18 26 30 32 32 32 32 30 29 28 27 27 26 26 26 25 26 26 26 25 26 26 27 26 27 27 27 27 26 25 24 23 21 18 16 15 14 13 12 11 10 9 9 8 8 8 8 7 7 7
7 12 21 27 30 32 32 33 31 29 29 28 28 27 26 26 26 25 25 26 25 25 25 26 26 26 27 27 27 27 26 26 25 23 21 18 16 14 13 13 13 12 11 10 9 9 8 9 8 8 8 8
9 14 21 27 30 32 33 33 30 28 28 28 28 27 27 26 25 25 26 26 26 26 26 26 26 26 27 26 26 26 26 27 26 24 21 18 16 14 13 13 13 12 11 10 9 9 9 9 9 9 8 9
10 15 21 26 30 32 34 32 28 27 29 29 28 28 27 26 26 26 26 26 26 26 26 26 26 26 26 25 26 26 26 26 26 24 21 18 16 15 14 13 12 12 12 11 10 9 9 9 9 10 9 9
11 14 20 25 30 33 34 31 27 28 30 29 29 29 28 27 26 26 27 27 27 27 27 27 27 27 27 26 26 26 25 26 27 25 21 19 17 16 14 13 12 12 12 11 11 10 9 9 9 10 10 10
11 13 18 24 30 33 32 30 28 30 31 30 30 29 29 28 27 28 28 28 28 28 29 29 29 29 29 28 26 26 26 26 28 26 22 20 18 17 14 13 13 12 13 12 11 11 10 10 9 10 10 10
10 12 15 21 28 32 32 31 30 32 32 31 31 30 30 29 29 29 29 29 30 30 30 31 31 31 30 29 28 27 26 27 28 27 23 21 18 17 15 13 13 12 13 12 12 12 11 10 9 10 10 11
9 11 12 16 25 31 32 32 32 33 33 32 32 31 31 30 30 30 30 31 31 31 32 32 33 33 32 31 30 29 28 27 29 28 25 22 20 18 16 14 13 13 12 12 12 11 11 11 10 10 10 11
9 9 10 12 18 26 29 32 33 33 33 33 34 33 31 31 32 32 32 32 32 33 33 33 34 34 34 34 32 31 29 29 29 29 26 23 21 20 19 16 15 14 13 13 12 12 12 11 11 11 12 13
8 9 10 10 12 16 22 27 31 33 33 33 33 33 33 32 32 32 33 33 33 34 34 34 35 36 36 36 35 34 31 30 30 29 27 25 23 22 21 19 17 16 15 14 13 13 12 12 12 11 12 13
10 9 9 9 10 10 13 18 24 29 32 32 33 33 33 32 32 32 32 33 34 34 35 35 36 37 37 38 37 36 33 32 31 30 29 26 25 25 23 22 21 19 18 17 15 13 13 13 12 12 12 12
15 13 12 10 10 10 10 11 15 20 25 27 30 31 32 32 31 32 32 33 33 34 35 35 36 37 38 39 38 38 36 34 32 31 31 29 28 27 26 25 23 22 20 18 16 14 14 14 14 13 12 12
26 24 21 17 14 13 11 10 10 12 15 18 21 24 26 28 29 30 30 31 32 33 34 35 36 36 37 38 39 40 38 36 34 32 32 31 30 29 28 27 26 24 22 19 17 16 16 16 16 14 13 13
35 34 31 27 23 19 15 13 12 11 12 13 15 16 18 21 24 26 27 29 30 31 33 34 34 35 36 37 39 41 41 40 37 34 34 32 31 30 29 29 28 26 23 19 17 17 17 17 17 16 15 15
36 37 36 33 30 26 22 18 16 15 14 14 14 14 15 16 19 21 23 25 26 29 30 32 32 33 35 36 38 40 42 43 41 39 37 34 31 30 30 30 30 28 25 22 19 18 19 19 19 19 18 18
34 35 36 36 35 32 28 25 22 20 19 18 17 16 15 16 16 18 19 21 23 25 27 29 30 32 33 35 36 38 41 44 45 43 41 38 33 30 31 31 31 30 27 24 22 21 22 21 21 22 21 21
33 34 35 36 37 36 33 31 28 27 26 24 22 20 19 17 17 17 18 19 20 21 24 25 27 29 31 32 34 35 37 41 45 47 46 44 39 35 32 30 32 32 28 27 25 23 25 23 25 27 24 24
32 33 35 37 38 38 37 36 34 33 31 30 28 25 23 21 21 19 18 18 19 20 21 22 24 26 28 30 32 33 34 36 40 45 48 48 47 44 39 34 33 31 29 28 27 27 26 24 29 33 28 28
28 29 31 34 36 37 38 37 37 37 36 35 33 30 28 26 24 22 21 20 20 20 20 21 22 23 25 27 29 30 31 32 34 38 42 45 48 49 48 43 38 35 32 30 30 29 27 25 30 33 30 32
22 22 23 25 27 28 30 30 31 32 35 36 36 34 32 30 28 26 24 24 23 22 21 21 21 22 23 24 26 27 28 30 31 32 34 38 43 48 50 48 45 43 40 37 34 31 29 27 29 30 31 37
21 21 20 21 22 23 26 29 29 30 31 32 35 36 35 34 31 29 28 27 26 25 25 24 23 23 23 23 23 24 25 26 27 29 30 32 36 43 48 49 47 46 44 41 38 37 36 31 29 31 35 43
23 23 23 23 24 24 27 30 31 32 31 29 30 34 36 36 34 33 32 31 30 29 28 28 27 27 26 26 25 24 25 25 25 26 27 29 32 36 43 47 47 45 44 41 38 38 37 33 31 32 39 48
25 25 24 25 25 25 26 28 29 31 33 31 30 31 33 36 36 36 36 35 35 34 33 33 32 31 31 30 29 28 28 27 26 26 26 27 29 31 35 41 45 46 45 42 39 36 34 34 32 34 44 47
26 25 25 26 26 27 27 29 29 29 31 31 30 30 30 33 35 36 36 36 36 37 38 38 37 37 37 36 35 34 33 32 31 29 29 27 28 29 31 35 39 43 45 43 40 36 33 33 34 40 43 36
25 25 26 26 26 27 27 28 29 29 29 29 29 30 29 31 33 35 36 36 37 38 39 40 40 40 41 41 41 40 39 38 37 35 34 32 31 30 30 32 34 38 42 43 40 35 34 37 39 40 35 30
24 24 24 24 25 26 27 29 30 32 32 33 33 33 34 34 34 36 37 38 39 39 40 41 42 43 44 45 45 45 45 45 44 42 40 38 36 34 33 33 33 35 38 42 41 37 37 39 38 36 33 34
23 23 24 24 26 27 29 31 33 35 36 37 38 37 38 37 37 37 38 39 40 40 41 42 43 44 45 46 47 48 48 47 48 48 46 44 42 40 38 37 35 35 36 39 41 40 38 35 33 34 35 37
Wind_Speed
7 8 8 10 11 13 14 15 15 15 16 17 20 21 21 22 22 22 23 24 24 24 24 25 26 26 27 27 28 28 28 28 28 28 28 28 29 28 28 27 27 27 28 28 27 26 26 25 25 25 25 25
6 7 8 9 11 12 12 13 13 14 15 18 20 20 20 22 22 22 23 24 23 24 25 26 26 26 26 26 26 27 27 27 28 28 28 28 28 28 28 28 29 29 28 27 27 25 24 24 24 24 24 24
6 7 8 9 10 10 11 12 12 13 15 18 19 19 20 22 22 23 23 23 24 24 25 25 24 24 25 25 26 27 27 27 28 28 28 28 29 29 29 30 30 29 29 28 28 26 25 25 25 25 25 25
5 6 6 7 8 9 10 10 11 13 15 16 17 18 20 22 22 23 24 24 24 24 24 24 25 25 26 27 27 28 28 28 28 28 28 29 30 30 30 30 30 29 29 28 28 27 27 27 26 26 26 26
4 5 5 6 7 7 8 9 10 12 14 15 16 17 19 21 22 24 25 24 24 24 25 25 26 27 27 28 28 28 28 28 28 28 29 30 31 31 31 31 30 29 29 28 27 27 27 27 27 27 27 26
3 4 4 4 5 6 7 8 9 11 12 14 14 16 18 20 22 23 23 23 23 24 25 25 26 27 27 28 28 28 28 28 28 28 29 30 31 31 31 31 30 30 29 28 27 27 27 27 27 27 27 26
3 3 3 3 3 4 6 6 7 10 11 12 13 15 17 19 20 21 21 21 22 23 24 24 25 26 26 27 28 29 29 29 29 29 29 30 31 31 30 30 30 30 29 28 28 28 28 27 27 27 26 26
3 3 2 1 2 3 4 4 8 9 10 10 12 14 16 17 19 19 19 19 20 21 22 23 24 25 26 27 29 30 31 30 30 30 30 30 31 31 31 30 30 30 30 29 29 28 28 28 27 27 26 25
3 3 2 1 1 2 3 5 8 9 9 10 11 13 14 16 17 17 17 18 19 20 21 22 23 24 25 27 29 31 32 31 30 30 30 31 31 31 31 31 31 31 31 30 30 29 28 28 27 27 26 25
4 3 3 3 2 3 4 6 8 8 8 10 11 12 13 14 16 16 16 17 17 18 19 21 22 24 25 27 29 31 32 32 30 29 29 30 31 31 32 32 32 32 31 31 30 30 30 29 28 27 26 26
5 5 5 4 4 4 6 7 7 8 9 10 11 11 12 14 15 15 15 16 16 17 18 20 22 24 25 27 29 30 31 31 30 29 28 29 30 30 31 32 32 31 32 31 31 31 30 30 28 27 26 25
6 6 6 5 5 6 6 7 8 8 9 11 11 12 12 13 14 15 15 15 16 17 18 19 21 23 24 26 28 29 30 30 29 28 28 28 29 30 31 31 31 31 32 32 32 32 31 30 29 28 27 25
6 7 6 6 7 7 8 8 9 10 10 11 12 12 13 13 14 14 15 15 16 17 17 19 20 21 23 25 26 27 28 29 28 27 27 28 28 29 30 30 30 31 31 32 32 32 32 31 30 28 28 26
7 6 7 7 8 9 9 10 10 11 11 12 12 13 13 14 14 15 15 16 16 16 17 18 19 20 22 23 25 26 27 28 28 27 27 27 28 28 29 29 30 30 30 31 31 32 32 31 30 28 27 26
6 6 8 8 9 10 10 11 12 12 13 13 14 14 14 15 15 15 15 16 16 16 17 18 19 20 21 23 24 25 26 27 27 27 26 26 27 28 28 28 29 30 30 30 30 30 31 30 29 28 27 26
8 8 9 10 10 11 12 13 13 14 14 15 15 15 15 15 15 15 15 16 16 17 18 18 19 20 21 22 22 23 24 25 26 26 25 24 25 26 26 27 28 28 29 29 29 28 29 29 28 27 27 26
9 10 11 11 12 13 13 14 15 15 16 16 16 16 15 16 16 16 16 17 17 18 19 19 20 20 21 21 21 21 22 23 24 24 24 23 23 24 25 26 26 26 27 27 26 26 27 27 28 26 26 26
10 11 12 13 13 14 15 15 16 16 16 17 17 16 17 17 17 17 17 18 18 19 19 20 20 20 20 20 20 20 21 22 22 23 22 22 21 22 24 25 26 26 26 25 25 25 25 26 27 26 25 25
10 11 12 13 14 15 15 16 16 16 16 17 17 17 18 17 18 18 18 18 19 19 20 20 21 21 20 20 20 20 20 20 21 22 21 21 21 20 22 23 24 25 25 24 24 24 24 25 25 25 25 25
9 10 12 13 14 15 15 16 16 16 17 17 18 18 18 18 18 18 19 19 19 19 20 21 21 21 20 20 20 20 20 20 21 21 21 21 21 21 22 22 23 24 24 24 23 23 24 24 23 24 25 24
8 9 11 12 13 14 15 16 16 17 17 18 18 18 18 19 19 19 19 19 20 20 20 21 21 21 20 20 20 20 21 21 21 22 22 21 22 23 22 22 23 23 23 24 24 24 25 24 22 22 24 23
8 9 10 11 12 13 14 15 16 17 18 18 18 18 19 19 19 19 19 20 20 20 21 21 21 21 21 21 21 21 21 22 22 22 23 22 22 23 23 24 24 24 23 24 24 25 25 23 21 21 23 22
8 9 10 11 11 12 13 14 15 16 17 18 18 18 19 19 19 20 20 20 21 21 21 22 22 22 22 22 22 23 22 22 22 22 23 24 24 23 23 24 25 25 24 25 25 25 26 23 20 21 23 21
8 10 11 12 12 13 13 15 15 15 16 17 18 18 19 20 20 20 20 20 21 21 22 22 23 23 23 24 24 24 24 24 24 24 24 25 25 25 24 24 25 25 25 26 25 24 24 22 21 22 21 20
9 11 12 13 14 14 14 16 17 17 17 16 16 17 19 19 20 20 20 21 21 22 22 23 24 24 25 25 25 25 26 26 26 26 26 26 25 26 26 26 26 27 27 27 27 27 25 22 22 22 20 18
10 12 13 14 14 14 14 14 16 17 18 18 16 16 17 19 19 20 20 21 21 22 23 23 24 25 25 26 26 26 26 27 28 28 28 27 27 26 26 26 26 28 28 27 29 29 28 25 23 21 18 16
12 13 15 15 14 14 14 14 15 15 16 17 17 16 16 17 18 19 20 20 21 22 22 23 24 25 26 27 27 27 28 28 29 29 29 29 29 27 27 26 25 26 27 28 28 27 26 25 24 21 15 14
13 14 15 15 15 14 14 14 14 15 15 15 15 15 15 14 15 17 18 19 20 21 22 23 24 25 26 27 28 29 29 29 29 30 30 29 29 29 29 28 26 25 26 27 27 25 24 22 19 15 15 23
14 14 15 15 15 14 14 14 14 15 16 16 16 16 16 15 15 16 17 18 19 20 21 22 23 24 25 26 27 28 29 30 30 30 30 30 29 29 30 30 28 26 25 25 24 23 22 17 13 14 22 30
14 15 15 15 15 15 15 15 15 16 17 17 17 17 17 17 17 16 17 18 19 20 21 22 23 24 25 26 27 28 29 29 30 30 30 30 30 30 29 30 31 28 26 26 25 23 21 17 17 23 27 26
14 14 15 15 15 15 15 14 13 14 15 16 16 17 17 17 17 17 17 18 19 20 21 22 24 25 26 26 27 28 29 29 29 30 30 30 30 30 30 30 31 30 28 27 26 24 23 22 21 24 25 23
Wind_Direction
33 42 57 67 63 54 46 39 34 34 33 32 31 27 24 24 21 21 25 26 23 22 21 22 20 16 15 15 15 13 11 10 10 8 6 6 5 4 3 3 3 3 3 1 360 358 355 354 352 351 351 350
44 56 70 70 62 52 42 37 35 35 35 33 32 27 24 25 22 25 30 27 23 21 21 22 19 15 14 14 14 13 10 9 9 7 5 5 5 3 4 4 4 5 4 2 1 359 356 354 353 352 350 349
52 70 76 70 63 50 40 37 37 36 35 34 33 26 24 28 26 28 32 27 22 21 20 21 18 14 14 13 14 12 9 9 9 6 4 5 5 5 5 6 6 6 4 2 2 1 358 357 355 353 351 350
63 81 83 75 63 48 41 37 38 37 35 34 31 23 25 31 28 28 32 26 21 20 19 20 17 14 14 14 13 11 8 9 8 5 5 6 6 6 7 6 6 6 4 3 2 1 0 358 356 354 352 351
85 97 96 81 62 48 40 37 38 36 32 30 27 24 26 31 28 27 30 25 21 19 19 19 16 15 15 14 13 11 9 9 8 6 8 8 8 8 8 6 5 5 5 4 2 1 1 359 357 355 354 352
118 118 111 84 61 44 37 37 35 29 25 24 25 26 26 28 26 24 26 24 19 18 19 19 17 16 16 14 14 12 10 10 8 8 10 10 10 9 8 5 4 5 4 5 3 3 2 1 358 356 354 353
142 137 129 88 57 34 36 32 21 19 18 22 23 24 25 23 21 20 23 22 17 18 19 19 16 16 16 14 14 13 11 11 9 9 11 11 10 8 8 5 4 5 4 4 4 3 3 1 359 356 355 354
169 166 161 109 42 22 31 11 5 12 13 18 19 20 21 17 15 17 20 19 15 15 16 16 14 14 15 13 14 13 11 11 10 10 11 11 11 8 7 6 5 5 4 5 5 4 3 1 360 357 355 354
195 199 206 232 326 354 359 351 356 6 8 12 14 15 15 9 10 13 16 16 12 12 12 11 10 10 12 12 13 13 11 12 11 10 11 11 10 8 7 7 7 6 5 5 5 4 3 2 0 358 355 354
220 229 229 247 286 311 331 341 350 359 359 3 6 6 6 3 4 8 10 11 8 7 6 5 6 7 10 11 12 13 12 12 11 10 11 11 9 8 8 9 9 6 4 4 4 5 3 2 0 358 356 355
238 244 244 255 276 293 317 332 341 351 350 351 354 353 356 357 358 2 4 4 2 2 1 1 2 4 7 9 11 12 11 12 11 8 10 11 10 10 10 11 11 7 4 3 3 4 2 1 360 359 357 356
250 252 255 261 274 292 310 325 334 341 339 339 341 341 346 350 351 354 355 356 355 356 356 356 358 0 4 6 10 11 9 10 9 7 8 9 9 10 11 13 12 9 6 4 3 2 1 0 359 358 357 357
259 260 267 271 277 292 306 319 328 330 328 328 329 331 337 340 342 346 347 348 348 349 350 351 354 357 1 3 8 8 6 8 7 6 7 7 7 8 11 12 11 10 7 5 4 2 0 359 358 356 356 357
266 270 278 284 289 297 305 315 320 320 319 318 319 323 329 332 335 338 340 339 340 342 343 346 351 354 358 0 4 5 3 5 5 4 6 5 4 5 8 9 9 8 6 6 4 2 0 358 357 356 356 356
283 291 292 296 301 304 308 310 310 310 311 311 313 318 323 326 329 330 331 332 333 336 339 343 347 350 354 356 359 1 359 2 2 2 4 3 1 2 4 6 6 5 3 4 4 2 359 357 356 356 356 357
302 306 306 309 309 310 310 307 304 303 304 306 309 313 317 320 321 323 325 328 331 333 336 339 342 345 348 350 353 354 354 357 358 357 360 360 359 360 1 3 4 3 2 2 3 360 357 355 356 356 355 357
311 313 316 316 314 312 310 305 302 300 300 301 304 308 312 316 318 322 325 327 329 331 331 333 335 338 340 342 345 347 348 352 353 353 354 355 357 358 358 1 1 1 1 1 1 358 354 353 354 356 356 357
315 318 319 316 314 312 308 305 302 300 300 301 304 308 312 316 319 321 323 325 326 326 326 327 328 330 332 335 338 340 343 347 348 349 351 351 354 356 357 358 357 358 360 359 359 356 353 352 352 355 357 358
316 318 317 315 312 309 306 305 304 304 305 305 308 312 315 317 318 319 320 321 321 321 321 321 322 323 326 330 333 335 339 342 344 348 348 346 349 352 354 355 354 355 357 356 355 353 351 351 351 352 355 357
311 313 312 310 309 307 306 306 307 308 308 310 313 315 316 317 317 317 317 317 317 317 316 316 317 319 322 326 329 332 335 338 341 345 346 345 344 346 348 349 350 352 353 351 350 349 349 350 349 350 353 355
307 309 307 304 304 304 305 306 307 309 310 312 314 314 315 314 315 314 314 314 313 313 312 313 314 316 319 323 326 329 332 335 338 340 342 343 342 340 341 342 343 347 348 347 346 344 345 347 346 345 351 352
312 311 307 304 304 304 304 305 307 308 310 311 312 312 312 312 313 312 312 311 310 310 309 310 311 314 318 321 323 325 329 332 333 334 336 337 337 337 337 337 338 341 342 342 341 340 343 345 340 338 346 348
313 309 306 303 302 303 301 301 302 304 307 309 310 311 310 310 311 310 310 309 309 308 308 309 310 313 316 317 319 322 324 326 326 328 328 328 329 332 333 334 334 335 336 335 335 337 340 340 335 335 341 342
307 304 303 303 303 304 304 305 305 306 306 307 309 309 309 309 309 309 309 308 308 308 308 309 310 312 313 314 316 318 319 319 320 321 321 322 324 326 328 330 330 330 331 330 329 332 335 334 331 334 337 335
300 302 304 307 309 310 311 311 310 310 308 308 308 307 307 308 308 308 308 308 309 309 310 310 311 312 313 313 314 315 315 315 316 317 318 319 320 321 324 326 327 326 328 328 327 328 329 329 330 333 333 327
296 299 302 303 304 305 306 305 306 307 307 310 312 310 309 310 309 309 309 310 310 310 311 312 312 313 312 313 313 313 313 312 313 314 315 315 315 317 319 321 323 324 326 327 329 329 328 330 332 330 326 318
294 295 295 296 296 298 300 302 303 304 304 308 313 314 314 314 312 312 312 313 313 313 314 314 314 313 313 313 313 312 312 311 312 312 312 312 312 313 313 315 317 319 321 323 326 327 326 329 328 324 318 309
290 291 291 292 294 297 299 300 302 302 302 306 311 313 317 319 316 316 317 318 319 320 320 320 318 317 316 315 314 313 312 311 311 310 310 310 310 310 310 310 311 313 316 318 322 324 323 325 321 315 308 308
286 287 289 290 292 293 293 297 302 304 307 311 314 317 320 322 323 323 323 323 325 325 325 324 323 322 320 318 317 315 313 312 311 310 309 308 308 307 307 308 308 309 311 312 315 317 317 318 309 299 307 313
284 286 288 290 291 292 295 301 308 309 312 315 317 320 323 325 326 327 326 326 327 327 327 327 326 325 323 322 320 317 316 314 312 310 308 307 306 305 305 305 305 306 307 308 309 309 307 304 298 300 307 311
282 285 288 290 291 292 295 299 303 304 307 311 313 318 321 323 325 326 327 328 329 329 329 328 327 327 325 324 322 319 317 316 314 312 309 307 306 304 303 302 302 304 304 305 305 305 303 300 298 298 300 301